TimeCST,TemperatureF,Dew PointF,Humidity,Sea Level PressureIn,VisibilityMPH,Wind Direction,Wind SpeedMPH,Gust SpeedMPH,PrecipitationIn,Events,Conditions,WindDirDegrees,DateUTC
12:54 AM,23.0,12.9,65,30.24,10.0,SW,6.9,-,N/A,,Clear,230,2013-12-18 06:54:00
1:54 AM,17.1,10.0,74,30.25,10.0,SW,6.9,-,N/A,,Clear,220,2013-12-18 07:54:00
2:54 AM,17.1,10.0,74,30.25,10.0,SSW,6.9,-,N/A,,Clear,200,2013-12-18 08:54:00
3:54 AM,21.0,10.9,65,30.23,10.0,South,5.8,-,N/A,,Clear,170,2013-12-18 09:54:00
4:54 AM,21.9,12.9,68,30.22,10.0,South,5.8,-,N/A,,Clear,180,2013-12-18 10:54:00
5:54 AM,24.1,12.9,62,30.19,10.0,South,6.9,-,N/A,,Clear,170,2013-12-18 11:54:00
6:54 AM,24.1,12.0,60,30.18,10.0,SSE,8.1,-,N/A,,Clear,160,2013-12-18 12:54:00
7:54 AM,26.1,12.9,58,30.15,10.0,South,10.4,-,N/A,,Clear,170,2013-12-18 13:54:00
8:54 AM,28.9,14.0,54,30.14,10.0,South,11.5,-,N/A,,Clear,170,2013-12-18 14:54:00
9:54 AM,33.1,15.1,48,30.12,10.0,South,17.3,23.0,N/A,,Clear,180,2013-12-18 15:54:00
10:54 AM,37.9,18.0,45,30.07,10.0,South,15.0,-,N/A,,Clear,180,2013-12-18 16:54:00
11:54 AM,39.0,21.9,50,30.02,10.0,South,17.3,27.6,N/A,,Clear,180,2013-12-18 17:54:00
12:54 PM,41.0,25.0,53,29.97,10.0,South,16.1,-,N/A,,Clear,190,2013-12-18 18:54:00
1:54 PM,42.1,26.1,53,29.93,10.0,South,17.3,-,N/A,,Clear,190,2013-12-18 19:54:00
2:54 PM,44.1,27.0,51,29.90,10.0,South,13.8,-,N/A,,Clear,180,2013-12-18 20:54:00
3:54 PM,44.1,28.0,53,29.88,10.0,South,11.5,21.9,N/A,,Clear,180,2013-12-18 21:54:00
4:54 PM,44.1,28.9,55,29.86,10.0,South,15.0,-,N/A,,Clear,180,2013-12-18 22:54:00
5:54 PM,43.0,30.0,60,29.86,10.0,South,11.5,-,N/A,,Clear,190,2013-12-18 23:54:00
6:54 PM,43.0,30.0,60,29.86,10.0,South,12.7,-,N/A,,Clear,190,2013-12-19 00:54:00
7:54 PM,43.0,30.9,62,29.87,10.0,South,15.0,-,N/A,,Clear,190,2013-12-19 01:54:00
8:54 PM,43.0,30.9,62,29.86,10.0,South,16.1,-,N/A,,Clear,190,2013-12-19 02:54:00
9:54 PM,39.9,30.9,70,29.88,10.0,South,11.5,-,N/A,,Clear,190,2013-12-19 03:54:00
10:54 PM,42.1,30.9,65,29.88,10.0,South,11.5,-,N/A,,Clear,190,2013-12-19 04:54:00
11:54 PM,41.0,30.9,67,29.87,10.0,South,13.8,-,N/A,,Clear,190,2013-12-19 05:54:00